Time,TemperatureF,DewpointF,PressureIn,WindDirection,WindDirectionDegrees,WindSpeedMPH,WindSpeedGustMPH,Humidity,HourlyPrecipIn,Conditions,Clouds,dailyrainin,SoftwareType,DateUTC
2013-10-09 00:01:00,61.1,59.0,30.01,NE,55,0.0,-999.0,93,-99.99,,,0.00,weatherlink.com 1.10,2013-10-09 05:01:00,
2013-10-09 00:16:00,61.0,59.0,30.01,NE,55,0.0,-999.0,93,-99.99,,,0.00,weatherlink.com 1.10,2013-10-09 05:16:00,
2013-10-09 00:31:00,60.9,59.0,30.01,NE,55,0.0,-999.0,93,-99.99,,,0.00,weatherlink.com 1.10,2013-10-09 05:31:00,
2013-10-09 00:46:00,60.8,59.0,30.01,NE,55,0.0,-999.0,93,-99.99,,,0.00,weatherlink.com 1.10,2013-10-09 05:46:00,
2013-10-09 01:01:00,60.8,59.0,30.00,NE,55,0.0,-999.0,93,-99.99,,,0.00,weatherlink.com 1.10,2013-10-09 06:01:00,
2013-10-09 01:17:00,60.7,59.0,30.00,NE,55,0.0,-999.0,93,-99.99,,,0.00,weatherlink.com 1.10,2013-10-09 06:17:00,
2013-10-09 01:32:00,60.6,59.0,30.00,NE,55,0.0,-999.0,94,-99.99,,,0.00,weatherlink.com 1.10,2013-10-09 06:32:00,
2013-10-09 01:47:00,60.5,59.0,30.00,NE,55,0.0,-999.0,94,-99.99,,,0.00,weatherlink.com 1.10,2013-10-09 06:47:00,
2013-10-09 02:02:00,60.4,59.0,30.00,NE,55,0.0,-999.0,94,-99.99,,,0.00,weatherlink.com 1.10,2013-10-09 07:02:00,
2013-10-09 02:18:00,60.3,59.0,30.00,NE,55,0.0,-999.0,94,-99.99,,,0.00,weatherlink.com 1.10,2013-10-09 07:18:00,
2013-10-09 02:32:00,60.2,59.0,30.01,NE,55,0.0,-999.0,95,-99.99,,,0.00,weatherlink.com 1.10,2013-10-09 07:32:00,
2013-10-09 02:47:00,60.1,59.0,30.00,NE,55,0.0,-999.0,95,-99.99,,,0.00,weatherlink.com 1.10,2013-10-09 07:47:00,
2013-10-09 03:02:00,60.2,59.0,30.00,NE,55,0.0,-999.0,95,-99.99,,,0.00,weatherlink.com 1.10,2013-10-09 08:02:00,
2013-10-09 03:17:00,60.3,59.0,30.00,NE,55,0.0,-999.0,95,-99.99,,,0.00,weatherlink.com 1.10,2013-10-09 08:17:00,
2013-10-09 03:32:00,60.3,59.0,30.00,NE,55,0.0,-999.0,95,-99.99,,,0.00,weatherlink.com 1.10,2013-10-09 08:32:00,
2013-10-09 03:47:00,60.2,59.0,30.00,NE,55,0.0,-999.0,95,-99.99,,,0.00,weatherlink.com 1.10,2013-10-09 08:47:00,
2013-10-09 04:02:00,60.1,59.0,29.99,NE,55,0.0,-999.0,95,-99.99,,,0.00,weatherlink.com 1.10,2013-10-09 09:02:00,
2013-10-09 04:18:00,60.1,59.0,30.00,NE,55,0.0,-999.0,95,-99.99,,,0.00,weatherlink.com 1.10,2013-10-09 09:18:00,
2013-10-09 04:33:00,60.2,59.0,30.00,NE,55,0.0,-999.0,96,-99.99,,,0.00,weatherlink.com 1.10,2013-10-09 09:33:00,
2013-10-09 04:48:00,60.4,59.0,30.00,NE,55,0.0,-999.0,96,-99.99,,,0.00,weatherlink.com 1.10,2013-10-09 09:48:00,
2013-10-09 05:03:00,60.3,59.0,30.00,NE,55,0.0,-999.0,95,-99.99,,,0.00,weatherlink.com 1.10,2013-10-09 10:03:00,
2013-10-09 05:17:00,60.2,59.0,30.00,NE,55,0.0,-999.0,95,-99.99,,,0.00,weatherlink.com 1.10,2013-10-09 10:17:00,
2013-10-09 05:33:00,60.2,59.0,30.00,NE,55,0.0,-999.0,96,-99.99,,,0.00,weatherlink.com 1.10,2013-10-09 10:33:00,
2013-10-09 05:48:00,60.1,59.0,30.00,NE,55,0.0,-999.0,96,-99.99,,,0.00,weatherlink.com 1.10,2013-10-09 10:48:00,
2013-10-09 06:03:00,60.1,59.0,30.01,NE,55,0.0,-999.0,96,-99.99,,,0.00,weatherlink.com 1.10,2013-10-09 11:03:00,
2013-10-09 06:17:00,60.1,59.0,30.01,NE,55,0.0,-999.0,96,-99.99,,,0.00,weatherlink.com 1.10,2013-10-09 11:17:00,
2013-10-09 06:33:00,60.0,59.0,30.01,NE,55,0.0,-999.0,96,-99.99,,,0.00,weatherlink.com 1.10,2013-10-09 11:33:00,
2013-10-09 06:48:00,60.1,59.0,30.01,NE,55,0.0,-999.0,97,-99.99,,,0.00,weatherlink.com 1.10,2013-10-09 11:48:00,
2013-10-09 07:03:00,60.1,59.0,30.02,NE,55,0.0,-999.0,97,-99.99,,,0.00,weatherlink.com 1.10,2013-10-09 12:03:00,
2013-10-09 07:18:00,60.2,59.0,30.02,NE,55,0.0,-999.0,97,-99.99,,,0.00,weatherlink.com 1.10,2013-10-09 12:18:00,
2013-10-09 07:33:00,60.4,60.0,30.03,NE,55,0.0,-999.0,98,-99.99,,,0.00,weatherlink.com 1.10,2013-10-09 12:33:00,
2013-10-09 07:48:00,61.1,61.0,30.04,NE,55,0.0,-999.0,98,-99.99,,,0.00,weatherlink.com 1.10,2013-10-09 12:48:00,
2013-10-09 08:04:00,62.0,62.0,30.04,NE,55,0.0,-999.0,98,-99.99,,,0.00,weatherlink.com 1.10,2013-10-09 13:04:00,
2013-10-09 08:18:00,62.7,62.0,30.05,ENE,57,1.0,-999.0,98,-99.99,,,0.00,weatherlink.com 1.10,2013-10-09 13:18:00,
2013-10-09 08:33:00,63.8,64.0,30.05,East,85,6.0,-999.0,99,-99.99,,,0.00,weatherlink.com 1.10,2013-10-09 13:33:00,
2013-10-09 08:48:00,65.0,65.0,30.05,East,86,0.0,-999.0,98,-99.99,,,0.00,weatherlink.com 1.10,2013-10-09 13:48:00,
2013-10-09 09:03:00,66.1,66.0,30.06,ESE,105,1.0,-999.0,98,-99.99,,,0.00,weatherlink.com 1.10,2013-10-09 14:03:00,
2013-10-09 09:18:00,67.2,66.0,30.06,East,79,0.0,-999.0,97,-99.99,,,0.00,weatherlink.com 1.10,2013-10-09 14:18:00,
2013-10-09 09:34:00,68.5,67.0,30.06,East,101,1.0,-999.0,96,-99.99,,,0.00,weatherlink.com 1.10,2013-10-09 14:34:00,
2013-10-09 09:48:00,69.5,68.0,30.07,East,92,0.0,-999.0,95,-99.99,,,0.00,weatherlink.com 1.10,2013-10-09 14:48:00,
2013-10-09 10:03:00,70.6,69.0,30.07,East,93,0.0,-999.0,93,-99.99,,,0.00,weatherlink.com 1.10,2013-10-09 15:03:00,
2013-10-09 10:18:00,71.7,70.0,30.07,East,100,0.0,-999.0,93,-99.99,,,0.00,weatherlink.com 1.10,2013-10-09 15:18:00,
2013-10-09 10:33:00,72.6,70.0,30.08,East,100,0.0,-999.0,92,-99.99,,,0.00,weatherlink.com 1.10,2013-10-09 15:33:00,
2013-10-09 10:48:00,73.5,71.0,30.08,East,98,0.0,-999.0,91,-99.99,,,0.00,weatherlink.com 1.10,2013-10-09 15:48:00,
2013-10-09 11:03:00,74.6,72.0,30.07,ESE,103,0.0,-999.0,91,-99.99,,,0.00,weatherlink.com 1.10,2013-10-09 16:03:00,
2013-10-09 11:19:00,75.7,72.0,30.08,SE,136,0.0,-999.0,88,-99.99,,,0.00,weatherlink.com 1.10,2013-10-09 16:19:00,
2013-10-09 11:33:00,76.3,73.0,30.08,South,173,0.0,-999.0,88,-99.99,,,0.00,weatherlink.com 1.10,2013-10-09 16:33:00,
2013-10-09 11:49:00,77.1,73.0,30.07,SE,140,0.0,-999.0,87,-99.99,,,0.00,weatherlink.com 1.10,2013-10-09 16:49:00,
2013-10-09 12:04:00,77.8,73.0,30.07,SSE,167,0.0,-999.0,85,-99.99,,,0.00,weatherlink.com 1.10,2013-10-09 17:04:00,
2013-10-09 12:18:00,78.4,73.0,30.07,East,89,0.0,-999.0,84,-99.99,,,0.00,weatherlink.com 1.10,2013-10-09 17:18:00,
2013-10-09 12:34:00,78.8,73.0,30.06,SSE,157,0.0,-999.0,83,-99.99,,,0.00,weatherlink.com 1.10,2013-10-09 17:34:00,
2013-10-09 12:48:00,79.3,74.0,30.05,South,190,3.0,-999.0,83,-99.99,,,0.00,weatherlink.com 1.10,2013-10-09 17:48:00,
2013-10-09 13:05:00,79.4,74.0,30.05,SSE,154,9.0,-999.0,83,-99.99,,,0.00,weatherlink.com 1.10,2013-10-09 18:05:00,
2013-10-09 13:19:00,80.0,74.0,30.04,ESE,119,1.0,-999.0,82,-99.99,,,0.00,weatherlink.com 1.10,2013-10-09 18:19:00,
2013-10-09 13:34:00,80.4,74.0,30.04,SE,126,2.0,-999.0,81,-99.99,,,0.00,weatherlink.com 1.10,2013-10-09 18:34:00,
2013-10-09 13:49:00,80.5,74.0,30.03,ESE,119,7.0,-999.0,80,-99.99,,,0.00,weatherlink.com 1.10,2013-10-09 18:49:00,
2013-10-09 14:04:00,80.7,75.0,30.03,South,171,6.0,-999.0,82,-99.99,,,0.00,weatherlink.com 1.10,2013-10-09 19:04:00,
2013-10-09 14:19:00,80.7,74.0,30.03,SW,215,0.0,-999.0,81,-99.99,,,0.00,weatherlink.com 1.10,2013-10-09 19:19:00,
2013-10-09 14:34:00,80.4,74.0,30.02,SSE,148,4.0,-999.0,81,-99.99,,,0.00,weatherlink.com 1.10,2013-10-09 19:34:00,
2013-10-09 14:49:00,80.3,74.0,30.02,SSE,160,6.0,-999.0,81,-99.99,,,0.00,weatherlink.com 1.10,2013-10-09 19:49:00,
2013-10-09 15:04:00,80.3,74.0,30.02,SSE,163,7.0,-999.0,81,-99.99,,,0.00,weatherlink.com 1.10,2013-10-09 20:04:00,
2013-10-09 15:19:00,80.1,74.0,30.02,SE,143,4.0,-999.0,81,-99.99,,,0.00,weatherlink.com 1.10,2013-10-09 20:19:00,
2013-10-09 15:34:00,80.2,74.0,30.02,SSE,153,5.0,-999.0,81,-99.99,,,0.00,weatherlink.com 1.10,2013-10-09 20:34:00,
2013-10-09 15:49:00,80.2,74.0,30.02,ESE,121,5.0,-999.0,81,-99.99,,,0.00,weatherlink.com 1.10,2013-10-09 20:49:00,
2013-10-09 16:04:00,79.9,74.0,30.02,SE,142,5.0,-999.0,82,-99.99,,,0.00,weatherlink.com 1.10,2013-10-09 21:04:00,
2013-10-09 16:19:00,79.4,74.0,30.02,SE,142,6.0,-999.0,82,-99.99,,,0.00,weatherlink.com 1.10,2013-10-09 21:19:00,
2013-10-09 16:34:00,79.2,74.0,30.02,SE,131,0.0,-999.0,83,-99.99,,,0.00,weatherlink.com 1.10,2013-10-09 21:34:00,
2013-10-09 16:49:00,79.3,74.0,30.01,SE,142,0.0,-999.0,84,-99.99,,,0.00,weatherlink.com 1.10,2013-10-09 21:49:00,
2013-10-09 17:04:00,78.8,74.0,30.01,SSE,149,6.0,-999.0,84,-99.99,,,0.00,weatherlink.com 1.10,2013-10-09 22:04:00,
2013-10-09 17:19:00,78.1,73.0,30.02,ESE,121,4.0,-999.0,85,-99.99,,,0.00,weatherlink.com 1.10,2013-10-09 22:19:00,
2013-10-09 17:34:00,77.7,73.0,30.02,ESE,116,6.0,-999.0,86,-99.99,,,0.00,weatherlink.com 1.10,2013-10-09 22:34:00,
2013-10-09 17:49:00,77.3,73.0,30.02,SSE,163,8.0,-999.0,86,-99.99,,,0.00,weatherlink.com 1.10,2013-10-09 22:49:00,
2013-10-09 18:04:00,76.9,73.0,30.02,ESE,103,0.0,-999.0,87,-99.99,,,0.00,weatherlink.com 1.10,2013-10-09 23:04:00,
2013-10-09 18:19:00,76.5,72.0,30.01,SE,144,0.0,-999.0,87,-99.99,,,0.00,weatherlink.com 1.10,2013-10-09 23:19:00,
2013-10-09 18:34:00,76.1,72.0,30.02,ESE,105,0.0,-999.0,88,-99.99,,,0.00,weatherlink.com 1.10,2013-10-09 23:34:00,
2013-10-09 18:49:00,75.6,72.0,30.02,SE,133,1.0,-999.0,89,-99.99,,,0.00,weatherlink.com 1.10,2013-10-09 23:49:00,
2013-10-09 19:04:00,75.3,72.0,30.02,ESE,115,0.0,-999.0,89,-99.99,,,0.00,weatherlink.com 1.10,2013-10-10 00:04:00,
2013-10-09 19:19:00,75.0,72.0,30.02,SE,137,1.0,-999.0,89,-99.99,,,0.00,weatherlink.com 1.10,2013-10-10 00:19:00,
2013-10-09 19:34:00,74.9,72.0,30.03,ESE,117,0.0,-999.0,90,-99.99,,,0.00,weatherlink.com 1.10,2013-10-10 00:34:00,
2013-10-09 19:49:00,74.4,72.0,30.03,ESE,118,4.0,-999.0,91,-99.99,,,0.00,weatherlink.com 1.10,2013-10-10 00:49:00,
2013-10-09 20:05:00,73.8,71.0,30.04,ESE,118,0.0,-999.0,92,-99.99,,,0.00,weatherlink.com 1.10,2013-10-10 01:05:00,
2013-10-09 20:19:00,73.2,71.0,30.04,ESE,118,0.0,-999.0,93,-99.99,,,0.00,weatherlink.com 1.10,2013-10-10 01:19:00,
2013-10-09 20:34:00,72.7,71.0,30.04,ESE,118,0.0,-999.0,94,-99.99,,,0.00,weatherlink.com 1.10,2013-10-10 01:34:00,
2013-10-09 20:49:00,72.4,71.0,30.04,ESE,118,0.0,-999.0,94,-99.99,,,0.00,weatherlink.com 1.10,2013-10-10 01:49:00,
2013-10-09 21:04:00,72.1,71.0,30.05,ESE,118,0.0,-999.0,95,-99.99,,,0.00,weatherlink.com 1.10,2013-10-10 02:04:00,
2013-10-09 21:19:00,71.9,71.0,30.05,East,101,0.0,-999.0,95,-99.99,,,0.00,weatherlink.com 1.10,2013-10-10 02:19:00,
2013-10-09 21:34:00,71.8,71.0,30.05,East,82,0.0,-999.0,96,-99.99,,,0.00,weatherlink.com 1.10,2013-10-10 02:34:00,
2013-10-09 21:50:00,72.0,71.0,30.05,East,82,0.0,-999.0,95,-99.99,,,0.00,weatherlink.com 1.10,2013-10-10 02:50:00,
2013-10-09 22:04:00,72.2,71.0,30.06,East,82,0.0,-999.0,95,-99.99,,,0.00,weatherlink.com 1.10,2013-10-10 03:04:00,
2013-10-09 22:21:00,72.4,71.0,30.06,East,81,3.0,-999.0,94,-99.99,,,0.00,weatherlink.com 1.10,2013-10-10 03:21:00,
2013-10-09 22:35:00,72.3,70.0,30.06,East,101,0.0,-999.0,93,-99.99,,,0.00,weatherlink.com 1.10,2013-10-10 03:35:00,
2013-10-09 23:04:00,72.1,70.0,30.06,East,84,0.0,-999.0,93,-99.99,,,0.00,weatherlink.com 1.10,2013-10-10 04:04:00,
2013-10-09 23:20:00,71.8,69.0,30.06,East,84,1.0,-999.0,92,-99.99,,,0.00,weatherlink.com 1.10,2013-10-10 04:20:00,
2013-10-09 23:35:00,71.3,69.0,30.06,East,83,0.0,-999.0,93,-99.99,,,0.00,weatherlink.com 1.10,2013-10-10 04:35:00,
2013-10-09 23:50:00,70.8,69.0,30.05,East,80,0.0,-999.0,93,-99.99,,,0.00,weatherlink.com 1.10,2013-10-10 04:50:00,